"2009-06-23 00:00:00",999662,8.25,88.2,4.849,0.364,21.47,109.9898,24.87,25.89,34.97,0,111.2,13.12,25.71,50.2
"2009-06-23 00:00:30",999663,8.74,82.3,5.587,0.766,21.56,109.9904,24.87,25.88,35.22,0,111.2,13.12,25.71,44.3
"2009-06-23 00:01:00",999664,7.306,76.49,5.581,0.401,21.59,109.9913,24.87,25.88,35.32,0,111.2,13.12,25.71,38.5
"2009-06-23 00:01:30",999665,6.96,77.55,3.748,0.433,21.62,109.9907,24.87,25.88,35.22,0,111.2,13.12,25.71,39.6
"2009-06-23 00:02:00",999666,7.17,85.6,6.749,0.336,21.55,109.9922,24.87,25.88,35.31,0,111.2,13.12,25.71,47.6
"2009-06-23 00:02:30",999667,6.206,82.2,5.434,0.522,21.48,109.9947,24.88,25.87,35.38,0,111.2,13.12,25.72,44.2
"2009-06-23 00:03:00",999668,7.283,83.2,5.955,0.568,21.53,109.9937,24.88,25.89,35.41,0,111.2,13.12,25.72,45.2
"2009-06-23 00:03:30",999669,7.74,82.1,5.048,0.419,21.46,109.9952,24.88,25.89,35.15,0,111.2,13.12,25.72,44.1
"2009-06-23 00:04:00",999670,7.554,89.1,2.596,0.439,21.36,110.0049,24.91,25.88,34.63,0,111.2,13.12,25.75,51.1
"2009-06-23 00:04:30",999671,7.106,79.94,2.353,0.601,21.48,110.0127,24.93,25.9,34.78,0,111.2,13.12,25.77,41.9
"2009-06-23 00:05:00",999672,8.6,85.8,4.134,0.509,21.5,110.015,24.93,25.9,34.72,0,111.2,13.12,25.77,47.8
"2009-06-23 00:05:30",999673,7.887,92.6,1.989,0.19,21.43,110.0144,24.93,25.9,34.31,0,111.2,13.12,25.77,54.6
"2009-06-23 00:06:00",999674,8.57,87.7,1.837,0.366,21.46,110.0168,24.94,25.91,34.53,0,111.2,13.13,25.78,49.7
"2009-06-23 00:06:30",999675,8.17,84.1,2.741,0.378,21.49,110.0212,24.95,25.91,34.75,0,111.2,13.13,25.79,46.1
"2009-06-23 00:07:00",999676,7.716,81.7,2.34,0.542,21.53,110.0255,24.96,25.92,34.56,0,111.2,13.13,25.80,43.7
"2009-06-23 00:07:30",999677,7.573,81.2,1.342,0.385,21.57,110.0243,24.96,25.92,34.41,0,111.2,13.13,25.80,43.2
"2009-06-23 00:08:00",999678,7.381,84.2,4.492,0.475,21.51,110.026,24.96,25.92,34.52,0,111.2,13.13,25.80,46.2
"2009-06-23 00:08:30",999679,7.601,94.3,2.984,0.322,21.51,110.0259,24.96,25.94,34.58,0,111.2,13.13,25.80,56.3
"2009-06-23 00:09:00",999680,7.972,94.1,3.008,0.314,21.59,110.0278,24.97,25.92,34.83,0,111.2,13.13,25.80,56.1
"2009-06-23 00:09:30",999681,9.04,92,2.392,0.643,21.59,110.0271,24.96,25.93,34.64,0,111.2,13.13,25.80,54.0
"2009-06-23 00:10:00",999682,7.753,88.8,5.036,0.543,21.55,110.0281,24.97,25.93,34.79,0,111.2,13.13,25.81,50.8
"2009-06-23 00:10:30",999683,6.604,78.25,3.868,0.442,21.52,110.0271,24.96,25.93,35.04,0,111.2,13.13,25.80,40.2
"2009-06-23 00:11:00",999684,7.74,77.71,3.01,0.336,21.61,110.0259,24.96,25.93,35.22,0,111.2,13.13,25.80,39.7
"2009-06-23 00:11:30",999685,8.25,72.03,7.462,0.448,21.69,110.0268,24.96,25.93,35.49,0,111.2,13.13,25.80,34.0
"2009-06-23 00:12:00",999686,8.63,81,1.581,0.255,21.6,110.0265,24.96,25.93,35.3,0,111.2,13.13,25.80,43.0
"2009-06-23 00:12:30",999687,8.35,79.9,2.48,0.217,21.58,110.0284,24.97,25.95,35.2,0,111.2,13.13,25.81,41.9
"2009-06-23 00:13:00",999688,8.06,76.14,3.574,0.328,21.57,110.0284,24.97,25.94,35.24,0,111.2,13.13,25.81,38.1
"2009-06-23 00:13:30",999689,7.526,77.17,1.387,0.362,21.53,110.0287,24.97,25.96,35.32,0,111.2,13.13,25.81,39.2
"2009-06-23 00:14:00",999690,7.181,73.89,5.566,0.406,21.58,110.029,24.97,25.96,35.41,0,111.2,13.13,25.81,35.9
"2009-06-23 00:14:30",999691,7.608,70.32,4.539,0.398,21.67,110.0302,24.97,25.97,35.64,0,111.2,13.13,25.81,32.3
"2009-06-23 00:15:00",999692,8.81,76.29,3.356,0.37,21.64,110.0307,24.97,25.97,35.42,0,111.2,13.13,25.81,38.3
"2009-06-23 00:15:30",999693,8.3,85.1,5.808,0.407,21.65,110.0352,24.98,25.96,35.29,0,111.2,13.13,25.82,47.1
"2009-06-23 00:16:00",999694,9.34,87.4,5.128,0.971,21.71,110.0389,24.99,25.98,35.65,0,111.2,13.13,25.83,49.4
"2009-06-23 00:16:30",999695,7.677,91.1,3.424,0.286,21.47,110.04,25,25.98,34.89,0,111.2,13.12,25.84,53.1
"2009-06-23 00:17:00",999696,7.759,81.9,1.98,0.332,21.55,110.0391,25,25.98,34.75,0,111.2,13.12,25.83,43.9
"2009-06-23 00:17:30",999697,7.945,76.36,3.487,0.395,21.6,110.0401,25,25.97,34.98,0,111.2,13.12,25.84,38.4
"2009-06-23 00:18:00",999698,8.3,80.3,2.778,0.625,21.6,110.0431,25.01,25.98,35.17,0,111.2,13.12,25.84,42.3
"2009-06-23 00:18:30",999699,8.72,73.78,5.956,0.841,21.68,110.0433,25.01,25.98,35.54,0,111.2,13.12,25.84,35.8
"2009-06-23 00:19:00",999700,9.56,71.93,2.154,0.559,21.55,110.0458,25.01,25.98,36.03,0,111.2,13.12,25.85,33.9
"2009-06-23 00:19:30",999701,8.66,71.41,2.846,0.612,21.65,110.0503,25.02,25.98,36.26,0,111.2,13.12,25.86,33.4
"2009-06-23 00:20:00",999702,7.767,69.17,1.654,0.507,21.73,110.0463,25.01,25.98,36.43,0,111.2,13.12,25.85,31.2
"2009-06-23 00:20:30",999703,7.795,62.77,3.759,0.336,21.74,110.0485,25.02,26,36.82,0,111.2,13.12,25.86,24.8
"2009-06-23 00:21:00",999704,7.575,64.11,2.222,0.998,21.67,110.0517,25.03,25.99,37.56,0,111.2,13.12,25.87,26.1
"2009-06-23 00:21:30",999705,8.12,66.29,2.869,0.55,21.59,110.0556,25.04,26,38.02,0,111.2,13.12,25.88,28.3
"2009-06-23 00:22:00",999706,9.09,69.04,2.942,0.552,21.58,110.0536,25.03,26.01,37.37,0,111.2,13.12,25.87,31.0
"2009-06-23 00:22:30",999707,8.5,73.51,3.912,0.296,21.57,110.0474,25.02,26,36.63,0,111.2,13.12,25.86,35.5
"2009-06-23 00:23:00",999708,7.797,72.59,5.042,0.566,21.57,110.0404,25,26,36.44,0,111.2,13.13,25.84,34.6
"2009-06-23 00:23:30",999709,7.728,80,3.223,0.532,21.63,110.0382,24.99,25.99,36.22,0,111.2,13.13,25.83,42.0
"2009-06-23 00:24:00",999710,7.748,75.22,7.428,0.735,21.5,110.0337,24.98,25.99,36.11,0,111.2,13.13,25.82,37.2
"2009-06-23 00:24:30",999711,7.647,79.97,4.185,0.474,21.5,110.0312,24.97,25.97,36.35,0,111.2,13.13,25.81,42.0
"2009-06-23 00:25:00",999712,7.823,72.92,3.5,0.329,21.48,110.0312,24.97,25.98,36.99,0,111.2,13.13,25.81,34.9
"2009-06-23 00:25:30",999713,7.821,76.25,2.199,0.321,21.51,110.0312,24.97,25.98,36.68,0,111.2,13.13,25.81,38.2
"2009-06-23 00:26:00",999714,8.04,75.34,1.965,0.305,21.51,110.0312,24.97,25.96,36.42,0,111.2,13.13,25.81,37.3
"2009-06-23 00:26:30",999715,8.56,68.57,5.618,0.538,21.45,110.0306,24.97,25.98,36.7,0,111.2,13.13,25.81,30.6
"2009-06-23 00:27:00",999716,8.28,71.33,4.161,0.925,21.52,110.0255,24.96,25.97,36.67,0,111.2,13.13,25.80,33.3
"2009-06-23 00:27:30",999717,8.33,65.52,4.674,0.845,21.52,110.0154,24.93,25.95,37.13,0,111.2,13.13,25.77,27.5
"2009-06-23 00:28:00",999718,8.88,72.97,1.537,0.231,21.58,110.0006,24.9,25.95,36.56,0,111.2,13.13,25.73,35.0
"2009-06-23 00:28:30",999719,8.35,70.53,2.158,0.392,21.5,109.9978,24.89,25.93,37.05,0,111.2,13.13,25.73,32.5
"2009-06-23 00:29:00",999720,9,72.11,2.968,0.566,21.58,109.9978,24.89,25.91,37.05,0,111.2,13.13,25.73,34.1
"2009-06-23 00:29:30",999721,8.72,75.48,2.813,0.84,21.6,109.9978,24.89,25.91,36.18,0,111.2,13.13,25.73,37.5
"2009-06-23 00:30:00",999722,7.55,67.78,4.215,0.586,21.5,109.9972,24.89,25.89,37.56,0,111.2,13.13,25.73,29.8
"2009-06-23 00:30:30",999723,7.764,74.5,3.106,0.356,21.58,109.9875,24.86,25.89,37.37,0,111.2,13.13,25.70,36.5
"2009-06-23 00:31:00",999724,7.831,74.36,4.457,0.558,21.55,109.977,24.84,25.88,36.53,0,111.2,13.13,25.67,36.4
"2009-06-23 00:31:30",999725,7.82,57.92,2.419,0.265,21.42,109.9698,24.82,25.85,37.39,0,111.2,13.13,25.66,19.9
"2009-06-23 00:32:00",999726,7.615,61.56,1.974,0.255,21.47,109.9656,24.81,25.86,37.48,0,111.2,13.13,25.64,23.6
"2009-06-23 00:32:30",999727,7.475,65.19,3.501,0.335,21.42,109.9647,24.8,25.84,37.34,0,111.2,13.13,25.64,27.2
"2009-06-23 00:33:00",999728,7.031,60.7,3.385,0.221,21.4,109.9656,24.81,25.85,37.54,0,111.2,13.13,25.64,22.7
"2009-06-23 00:33:30",999729,7.222,62.85,1.362,0.252,21.34,109.9675,24.81,25.84,37.72,0,111.2,13.13,25.65,24.8
"2009-06-23 00:34:00",999730,7.245,66.4,3.527,0.347,21.37,109.9612,24.79,25.81,37.78,0,111.2,13.12,25.63,28.4
"2009-06-23 00:34:30",999731,7.582,66.77,2.148,0.433,21.4,109.9446,24.75,25.81,37.62,0,111.2,13.12,25.59,28.8
"2009-06-23 00:35:00",999732,7.222,67.85,1.776,0.32,21.47,109.9385,24.74,25.8,37.64,0,111.2,13.12,25.57,29.8
"2009-06-23 00:35:30",999733,7.631,71.11,2.983,0.287,21.56,109.9347,24.73,25.79,37.51,0,111.2,13.12,25.56,33.1
"2009-06-23 00:36:00",999734,7.383,76.66,3.127,0.555,21.62,109.9344,24.73,25.79,37.27,0,111.2,13.12,25.56,38.7
"2009-06-23 00:36:30",999735,8.02,74.67,4.59,0.399,21.57,109.9356,24.73,25.77,37.22,0,111.2,13.12,25.57,36.7
"2009-06-23 00:37:00",999736,7.04,73.8,8.76,0.74,21.47,109.9356,24.73,25.76,37.47,0,111.2,13.12,25.57,35.8
"2009-06-23 00:37:30",999737,7.575,71.25,7.917,0.714,21.55,109.9356,24.73,25.76,36.78,0,111.2,13.12,25.57,33.2
"2009-06-23 00:38:00",999738,7.766,69.69,5.958,0.472,21.52,109.9366,24.73,25.75,37.49,0,111.2,13.12,25.57,31.7
"2009-06-23 00:38:30",999739,7.761,76.24,3.395,0.393,21.66,109.9378,24.73,25.73,37.17,0,111.2,13.12,25.57,38.2
"2009-06-23 00:39:00",999740,8.01,71.52,2.196,0.262,21.63,109.936,24.73,25.74,37.08,0,111.2,13.12,25.57,33.5
"2009-06-23 00:39:30",999741,8.54,71.7,3.402,0.294,21.59,109.9356,24.73,25.73,37.18,0,111.2,13.12,25.57,33.7
"2009-06-23 00:40:00",999742,8.07,70.19,5.755,0.431,21.53,109.9363,24.73,25.72,37.46,0,111.2,13.13,25.57,32.2
"2009-06-23 00:40:30",999743,8.02,67.87,1.678,0.334,21.53,109.9373,24.73,25.72,38.31,0,111.2,13.13,25.57,29.9
"2009-06-23 00:41:00",999744,8.45,68.8,1.946,0.351,21.57,109.9364,24.73,25.71,38.32,0,111.2,13.13,25.57,30.8
"2009-06-23 00:41:30",999745,8.67,72.2,2.943,0.589,21.63,109.9344,24.73,25.71,37.85,0,111.2,13.13,25.56,34.2
"2009-06-23 00:42:00",999746,9.62,73.62,1.533,0.239,21.69,109.9337,24.72,25.71,36.56,0,111.2,13.13,25.56,35.6
"2009-06-23 00:42:30",999747,9.65,71.83,1.15,0.246,21.64,109.9315,24.72,25.71,36.27,0,111.2,13.13,25.56,33.8
"2009-06-23 00:43:00",999748,9.16,79.67,5.049,0.569,21.75,109.9278,24.71,25.71,36.19,0,111.2,13.13,25.55,41.7
"2009-06-23 00:43:30",999749,8.2,71.09,2.984,0.304,21.65,109.9249,24.7,25.7,36.18,0,111.2,13.13,25.54,33.1
"2009-06-23 00:44:00",999750,7.94,72.72,1.316,0.351,21.59,109.9236,24.7,25.69,36.13,0,111.2,13.13,25.54,34.7
"2009-06-23 00:44:30",999751,7.485,71.84,2.839,0.449,21.61,109.9233,24.7,25.69,35.97,0,111.2,13.13,25.54,33.8
"2009-06-23 00:45:00",999752,8.37,69.7,1.234,0.291,21.61,109.9242,24.7,25.68,36.31,0,111.2,13.13,25.54,31.7
"2009-06-23 00:45:30",999753,8.38,72.24,2.904,0.343,21.63,109.9262,24.7,25.69,35.94,0,111.2,13.13,25.54,34.2
"2009-06-23 00:46:00",999754,8.45,61.18,3.316,0.671,21.53,109.9259,24.7,25.7,36.85,0,111.2,13.13,25.54,23.2
"2009-06-23 00:46:30",999755,8.48,58.72,1.187,0.474,21.43,109.9262,24.7,25.71,38.55,0,111.2,13.13,25.54,20.7
"2009-06-23 00:47:00",999756,8.21,54.06,1.944,0.538,21.48,109.9194,24.69,25.69,39.02,0,111.2,13.13,25.53,16.1
"2009-06-23 00:47:30",999757,7.835,52.45,1.915,0.383,21.43,109.9144,24.67,25.7,39.13,0,111.2,13.13,25.51,14.5
"2009-06-23 00:48:00",999758,7.656,54.64,2.409,0.465,21.45,109.9073,24.66,25.7,39.3,0,111.2,13.13,25.49,16.6
"2009-06-23 00:48:30",999759,8.14,56.38,3.15,0.283,21.47,109.9057,24.65,25.7,38.66,0,111.2,13.13,25.49,18.4
"2009-06-23 00:49:00",999760,8.74,56.72,2.803,0.414,21.44,109.9057,24.65,25.68,38.61,0,111.2,13.13,25.49,18.7
"2009-06-23 00:49:30",999761,8.5,58.92,2.047,0.668,21.5,109.9057,24.65,25.68,39.09,0,111.2,13.13,25.49,20.9
"2009-06-23 00:50:00",999762,8.33,64.34,2.338,0.312,21.56,109.9045,24.65,25.67,38.24,0,111.2,13.13,25.49,26.3
"2009-06-23 00:50:30",999763,8.21,58.58,5.394,0.386,21.45,109.8916,24.62,25.65,38.77,0,111.2,13.13,25.45,20.6
"2009-06-23 00:51:00",999764,8.61,59.56,2.809,0.496,21.41,109.8798,24.59,25.65,39.34,0,111.2,13.13,25.42,21.6
"2009-06-23 00:51:30",999765,8.55,52.46,2.783,0.51,21.41,109.8734,24.57,25.63,39.33,0,111.2,13.12,25.41,14.5
"2009-06-23 00:52:00",999766,8.89,62.32,2.121,0.135,21.52,109.872,24.57,25.63,39.6,0,111.2,13.12,25.40,24.3
"2009-06-23 00:52:30",999767,8.75,60.63,2.225,0.205,21.49,109.872,24.57,25.62,39.03,0,111.2,13.12,25.40,22.6
"2009-06-23 00:53:00",999768,8.48,58.11,2.612,0.239,21.5,109.8599,24.53,25.6,39.45,0,111.2,13.12,25.37,20.1
"2009-06-23 00:53:30",999769,8.57,58,2.143,0.275,21.46,109.8444,24.49,25.58,39.48,0,111.2,13.12,25.33,20.0
"2009-06-23 00:54:00",999770,8.47,58.94,3.213,0.307,21.46,109.8385,24.48,25.56,39.31,0,111.2,13.12,25.32,20.9
"2009-06-23 00:54:30",999771,9.04,55.54,2.436,0.385,21.44,109.8383,24.48,25.55,39.8,0,111.2,13.12,25.32,17.5
"2009-06-23 00:55:00",999772,8.59,55.06,1.561,0.261,21.45,109.8352,24.47,25.53,39.98,0,111.1,13.12,25.31,17.1
"2009-06-23 00:55:30",999773,8.39,53.88,3.247,0.613,21.46,109.8248,24.44,25.52,40.12,0,111.2,13.12,25.28,15.9
"2009-06-23 00:56:00",999774,8.14,58.26,1.637,0.425,21.43,109.8093,24.4,25.5,39.87,0,111.2,13.12,25.24,20.3
"2009-06-23 00:56:30",999775,7.859,60.32,2.919,0.35,21.45,109.8046,24.39,25.48,40.08,0,111.2,13.13,25.23,22.3
"2009-06-23 00:57:00",999776,8.07,56.98,2.09,0.731,21.39,109.8046,24.39,25.48,40.22,0,111.1,13.13,25.23,19.0
"2009-06-23 00:57:30",999777,8.48,58.37,2.773,0.205,21.41,109.8046,24.39,25.45,40.11,0,111.2,13.13,25.23,20.4
"2009-06-23 00:58:00",999778,7.966,62.36,2.03,0.225,21.46,109.8035,24.39,25.45,40.4,0,111.2,13.13,25.23,24.4
"2009-06-23 00:58:30",999779,8.24,59.15,3.016,0.467,21.35,109.7897,24.35,25.44,40.14,0,111.1,13.13,25.19,21.2
"2009-06-23 00:59:00",999780,8.5,54.63,1.945,0.308,21.4,109.7771,24.32,25.43,39.87,0,111.1,13.14,25.16,16.6
"2009-06-23 00:59:30",999781,8.16,58.37,1.842,0.216,21.41,109.7709,24.31,25.41,39.39,0,111.1,13.14,25.14,20.4
"2009-06-23 01:00:00",999782,7.625,60.98,1.062,0.123,21.42,109.7709,24.31,25.39,38.89,0,111.1,13.14,25.14,23.0
"2009-06-23 01:00:30",999783,7.712,60.41,0.897,0.168,21.45,109.7709,24.31,25.37,38.58,0,111.2,13.14,25.14,22.4
"2009-06-23 01:01:00",999784,7.624,59.02,1.139,0.128,21.4,109.7709,24.31,25.36,38.66,0,111.1,13.14,25.14,21.0
"2009-06-23 01:01:30",999785,7.931,62.44,1.791,0.184,21.46,109.7664,24.29,25.34,38.57,0,111.1,13.14,25.13,24.4
"2009-06-23 01:02:00",999786,8.4,59.96,3.397,0.317,21.45,109.7526,24.26,25.32,38.57,0,111.1,13.14,25.10,22.0
"2009-06-23 01:02:30",999787,7.382,57.85,3.815,0.382,21.37,109.7459,24.24,25.33,39.11,0,111.2,13.14,25.08,19.8
"2009-06-23 01:03:00",999788,7.49,58.18,2.881,0.487,21.32,109.7439,24.24,25.31,39.34,0,111.2,13.14,25.07,20.2
"2009-06-23 01:03:30",999789,8.04,54.31,2.064,0.249,21.31,109.7386,24.22,25.31,39.16,0,111.2,13.14,25.06,16.3
"2009-06-23 01:04:00",999790,8.59,56.12,1.874,0.118,21.32,109.7375,24.22,25.32,39.16,0,111.2,13.14,25.06,18.1
"2009-06-23 01:04:30",999791,8.68,61.04,2.313,0.312,21.38,109.7372,24.22,25.3,39.26,0,111.2,13.14,25.06,23.0
"2009-06-23 01:05:00",999792,9.44,62.72,2.217,0.244,21.36,109.7372,24.22,25.27,39.04,0,111.2,13.14,25.06,24.7
"2009-06-23 01:05:30",999793,9.46,58.36,2.572,0.366,21.36,109.7369,24.22,25.28,39.03,0,111.2,13.14,25.06,20.4
"2009-06-23 01:06:00",999794,9.88,53.27,1.63,0.374,21.38,109.733,24.21,25.26,38.96,0,111.2,13.14,25.04,15.3
"2009-06-23 01:06:30",999795,9.96,53.72,1.996,0.227,21.39,109.7139,24.16,25.25,39.14,0,111.2,13.14,25.00,15.7
"2009-06-23 01:07:00",999796,9.85,57.82,2.556,0.263,21.41,109.7069,24.14,25.23,39.3,0,111.2,13.14,24.98,19.8
"2009-06-23 01:07:30",999797,9.35,50.73,3.671,0.341,21.43,109.7035,24.13,25.22,39.67,0,111.2,13.14,24.97,12.7
"2009-06-23 01:08:00",999798,8.67,50.57,2.573,0.358,21.4,109.7035,24.13,25.2,39.78,0,111.2,13.14,24.97,12.6
"2009-06-23 01:08:30",999799,8.34,56.02,1.927,0.231,21.38,109.7035,24.13,25.19,39.83,0,111.2,13.13,24.97,18.0
"2009-06-23 01:09:00",999800,8.22,52.7,1.494,0.289,21.39,109.7032,24.13,25.19,40.18,0,111.1,13.13,24.97,14.7
"2009-06-23 01:09:30",999801,8.44,59.14,2.897,0.274,21.39,109.6948,24.11,25.17,39.8,0,111.2,13.13,24.95,21.1
"2009-06-23 01:10:00",999802,8.43,58.7,1.341,0.453,21.39,109.683,24.08,25.15,39.44,0,111.2,13.13,24.92,20.7
"2009-06-23 01:10:30",999803,8.34,55.06,2.281,0.292,21.38,109.6765,24.06,25.16,39.94,0,111.1,13.13,24.90,17.1
"2009-06-23 01:11:00",999804,8.97,56.32,1.472,0.228,21.37,109.6709,24.05,25.14,39.12,0,111.1,13.13,24.88,18.3
"2009-06-23 01:11:30",999805,8.75,54.27,2.064,0.269,21.35,109.6698,24.05,25.13,39.37,0,111.2,13.13,24.88,16.3
"2009-06-23 01:12:00",999806,8.05,51.08,1.688,0.439,21.34,109.6698,24.05,25.1,39.8,0,111.1,13.13,24.88,13.1
"2009-06-23 01:12:30",999807,8.27,53.19,1.847,0.359,21.32,109.6698,24.05,25.1,39.81,0,111.2,13.13,24.88,15.2
"2009-06-23 01:13:00",999808,8.49,55.47,2.568,0.237,21.42,109.6698,24.05,25.11,39.59,0,111.1,13.13,24.88,17.5
"2009-06-23 01:13:30",999809,8.24,54.76,1.271,0.242,21.35,109.6676,24.04,25.09,39.23,0,111.1,13.13,24.88,16.8
"2009-06-23 01:14:00",999810,8.33,57.33,1.784,0.263,21.37,109.6589,24.02,25.07,39.57,0,111.1,13.14,24.85,19.3
"2009-06-23 01:14:30",999811,7.858,54.19,3.847,0.343,21.32,109.649,23.99,25.08,39.61,0,111.1,13.14,24.83,16.2
"2009-06-23 01:15:00",999812,8.31,51.6,2.139,0.189,21.31,109.6464,23.99,25.05,39.26,0,111.1,13.14,24.82,13.6
"2009-06-23 01:15:30",999813,8.13,47.97,2.059,0.326,21.32,109.6379,23.96,25.05,39.02,0,111.2,13.14,24.80,10.0
"2009-06-23 01:16:00",999814,7.78,53.11,2.478,0.348,21.42,109.6407,23.97,25.04,39.04,0,111.2,13.14,24.81,15.1
"2009-06-23 01:16:30",999815,7.954,53.53,2.522,0.561,21.41,109.6404,23.97,25.03,38.81,0,111.2,13.14,24.81,15.5
"2009-06-23 01:17:00",999816,8.28,57.61,2.152,0.614,21.35,109.6404,23.97,25.03,38.92,0,111.2,13.14,24.81,19.6
"2009-06-23 01:17:30",999817,8.91,57.38,1.571,0.412,21.35,109.646,23.98,25.03,39.1,0,111.2,13.14,24.82,19.4
"2009-06-23 01:18:00",999818,9.18,58.53,2.837,0.281,21.35,109.6444,23.98,25,39.17,0,111.2,13.14,24.82,20.5
"2009-06-23 01:18:30",999819,9.3,55.63,2.37,0.223,21.33,109.6476,23.99,25.01,38.98,0,111.1,13.14,24.82,17.6
"2009-06-23 01:19:00",999820,9.42,56.41,1.691,0.18,21.36,109.643,23.98,25,39.06,0,111.1,13.14,24.81,18.4
"2009-06-23 01:19:30",999821,8.8,54.74,1.132,0.362,21.35,109.6345,23.96,24.99,38.98,0,111.1,13.14,24.79,16.7
"2009-06-23 01:20:00",999822,8.86,55.36,1.852,0.192,21.36,109.632,23.95,24.98,38.97,0,111.1,13.14,24.78,17.4
"2009-06-23 01:20:30",999823,8.69,55.15,2.266,0.37,21.32,109.6292,23.94,24.96,39.13,0,111.1,13.14,24.78,17.2
"2009-06-23 01:21:00",999824,8.93,51.97,1.624,0.21,21.31,109.623,23.93,24.96,39.24,0,111.1,13.14,24.76,14.0
"2009-06-23 01:21:30",999825,8.91,53.42,1.921,0.373,21.35,109.6243,23.93,24.95,39.1,0,111.1,13.14,24.76,15.4
"2009-06-23 01:22:00",999826,8.7,54.39,2.538,0.221,21.43,109.628,23.94,24.94,38.99,0,111.1,13.14,24.77,16.4
"2009-06-23 01:22:30",999827,8.95,52.06,2.405,0.38,21.45,109.6289,23.94,24.94,38.93,0,111.1,13.14,24.78,14.1
"2009-06-23 01:23:00",999828,9.01,55.62,2.852,0.206,21.53,109.625,23.93,24.92,38.87,0,111.1,13.14,24.77,17.6
"2009-06-23 01:23:30",999829,9.41,55.49,1.735,0.208,21.53,109.6124,23.9,24.9,38.95,0,111.1,13.14,24.73,17.5
"2009-06-23 01:24:00",999830,9.77,53.47,1.525,0.242,21.57,109.6031,23.87,24.9,38.92,0,111.1,13.14,24.71,15.5
"2009-06-23 01:24:30",999831,9.96,53.43,1.99,0.293,21.6,109.5964,23.86,24.9,39.08,0,111.1,13.14,24.69,15.4
"2009-06-23 01:25:00",999832,10.28,50.04,1.261,0.15,21.66,109.5961,23.86,24.88,39.17,0,111.1,13.14,24.69,12.0
"2009-06-23 01:25:30",999833,9.73,51.79,1.493,0.149,21.7,109.5947,23.85,24.86,38.96,0,111.1,13.14,24.69,13.8
"2009-06-23 01:26:00",999834,9.6,52.02,1.655,0.254,21.71,109.588,23.84,24.85,39.29,0,111.1,13.14,24.67,14.0
"2009-06-23 01:26:30",999835,9.06,55.13,1.365,0.326,21.72,109.573,23.8,24.83,39.54,0,111.1,13.13,24.63,17.1
"2009-06-23 01:27:00",999836,10.25,54.75,1.723,0.461,21.77,109.5648,23.78,24.81,39.37,0,111.1,13.14,24.61,16.8
"2009-06-23 01:27:30",999837,10.13,50.92,3.6,0.767,21.78,109.5689,23.79,24.81,39.84,0,111.1,13.14,24.62,12.9
"2009-06-23 01:28:00",999838,8.97,45.53,3.767,0.509,21.73,109.567,23.78,24.79,40.78,0,111.1,13.14,24.62,7.5
"2009-06-23 01:28:30",999839,8.2,45.42,4.21,0.478,21.76,109.5471,23.73,24.77,40.76,0,111.1,13.14,24.57,7.4
"2009-06-23 01:29:00",999840,8.39,48.73,4.907,0.557,21.75,109.5385,23.71,24.75,40.84,0,111.1,13.14,24.54,10.7
"2009-06-23 01:29:30",999841,7.753,52.2,4.513,0.553,21.77,109.5382,23.71,24.73,40.35,0,111.1,13.14,24.54,14.2
"2009-06-23 01:30:00",999842,8.93,45.07,1.98,0.471,21.74,109.536,23.7,24.71,41.22,0,111.1,13.14,24.54,7.1
"2009-06-23 01:30:30",999843,8.14,47.95,1.933,0.704,21.79,109.5267,23.68,24.71,39.96,0,111.1,13.14,24.51,10.0
"2009-06-23 01:31:00",999844,7.732,50.38,2.896,0.464,21.76,109.511,23.64,24.69,40.12,0,111.1,13.14,24.47,12.4
"2009-06-23 01:31:30",999845,7.886,45.11,2.442,0.238,21.64,109.5048,23.62,24.67,41.29,0,111.1,13.14,24.46,7.1
"2009-06-23 01:32:00",999846,7.778,44.12,1.219,0.248,21.65,109.5045,23.62,24.65,41.93,0,111.1,13.15,24.46,6.1
"2009-06-23 01:32:30",999847,8.53,50.16,2.799,0.633,21.7,109.4989,23.61,24.63,41.45,0,111.1,13.15,24.44,12.2
"2009-06-23 01:33:00",999848,8.4,51.39,2.375,0.412,21.7,109.4773,23.55,24.61,41.76,0,111.1,13.15,24.39,13.4
"2009-06-23 01:33:30",999849,8.05,49.16,2.407,0.476,21.66,109.4708,23.54,24.61,41.79,0,111.1,13.15,24.37,11.2
"2009-06-23 01:34:00",999850,8.4,52.57,4.474,0.463,21.68,109.4708,23.54,24.58,41.71,0,111.1,13.15,24.37,14.6
"2009-06-23 01:34:30",999851,7.978,50.32,3.741,0.493,21.66,109.4655,23.52,24.56,41.81,0,111.1,13.15,24.36,12.3
"2009-06-23 01:35:00",999852,7.607,48.31,1.816,0.449,21.68,109.4422,23.46,24.55,41.65,0,111.1,13.15,24.30,10.3
"2009-06-23 01:35:30",999853,7.932,52.11,3.187,0.358,21.68,109.4371,23.45,24.52,41.4,0,111.1,13.15,24.28,14.1
"2009-06-23 01:36:00",999854,8.51,50.96,1.396,0.33,21.66,109.4371,23.45,24.5,41.77,0,111.1,13.15,24.28,13.0
"2009-06-23 01:36:30",999855,8.76,52.8,2.797,0.244,21.74,109.4341,23.44,24.48,41.29,0,111.1,13.15,24.27,14.8
"2009-06-23 01:37:00",999856,8.71,53.86,4.221,0.435,21.74,109.4178,23.4,24.48,41.16,0,111.1,13.15,24.23,15.9
"2009-06-23 01:37:30",999857,8.09,48.11,1.756,0.384,21.6,109.4071,23.37,24.46,41.75,0,111.1,13.15,24.20,10.1
"2009-06-23 01:38:00",999858,8.05,52.01,3.886,0.352,21.67,109.4034,23.36,24.44,41.74,0,111.1,13.15,24.20,14.0
"2009-06-23 01:38:30",999859,8.34,47.94,2.19,0.139,21.67,109.4047,23.37,24.43,41.64,0,111.1,13.15,24.20,9.9
"2009-06-23 01:39:00",999860,8.58,47.98,2.898,0.294,21.69,109.4074,23.37,24.42,41.37,0,111.1,13.15,24.21,10.0
"2009-06-23 01:39:30",999861,8.69,50.12,3.366,0.454,21.73,109.4057,23.37,24.39,41.31,0,111.1,13.15,24.20,12.1
"2009-06-23 01:40:00",999862,8.86,46.47,1.929,0.215,21.7,109.4029,23.36,24.39,41.56,0,111.1,13.15,24.19,8.5
"2009-06-23 01:40:30",999863,9.01,47.93,3.208,0.341,21.68,109.3976,23.35,24.37,41.41,0,111.1,13.15,24.18,9.9
"2009-06-23 01:41:00",999864,8.7,51.65,2.671,0.244,21.68,109.3962,23.34,24.36,41.5,0,111.1,13.15,24.18,13.7
"2009-06-23 01:41:30",999865,9.04,51.88,1.449,0.234,21.65,109.3946,23.34,24.36,41.58,0,111.1,13.15,24.17,13.9
"2009-06-23 01:42:00",999866,9.43,49.27,1.872,0.165,21.63,109.3971,23.35,24.35,41.53,0,111.1,13.15,24.18,11.3
"2009-06-23 01:42:30",999867,9,51.5,2.57,0.61,21.63,109.3974,23.35,24.35,41.61,0,111.1,13.15,24.18,13.5
"2009-06-23 01:43:00",999868,9.28,51.88,1.492,0.326,21.65,109.3983,23.35,24.34,41.45,0,111,13.15,24.18,13.9
"2009-06-23 01:43:30",999869,9.48,48.06,1.06,0.166,21.58,109.3995,23.35,24.32,41.82,0,111,13.15,24.19,10.1
"2009-06-23 01:44:00",999870,9.53,48.25,1.54,0.269,21.58,109.3999,23.35,24.31,41.74,0,111,13.15,24.19,10.2
"2009-06-23 01:44:30",999871,9.78,46.52,0.608,0.332,21.56,109.3887,23.32,24.31,41.69,0,111,13.15,24.16,8.5
"2009-06-23 01:45:00",999872,9.33,47.14,2.817,0.284,21.53,109.3795,23.3,24.3,41.83,0,111,13.15,24.13,9.1
"2009-06-23 01:45:30",999873,9.32,44.97,1.806,0.362,21.48,109.3726,23.28,24.29,42.27,0,111,13.15,24.12,7.0
"2009-06-23 01:46:00",999874,9.3,47.92,1.824,0.204,21.6,109.3729,23.28,24.28,42.05,0,111,13.15,24.12,9.9
"2009-06-23 01:46:30",999875,8.85,47.1,1.645,0.234,21.56,109.3723,23.28,24.27,42,0,111,13.15,24.12,9.1
"2009-06-23 01:47:00",999876,9.55,46.72,1.892,0.297,21.52,109.3614,23.25,24.24,41.97,0,111,13.15,24.09,8.7
"2009-06-23 01:47:30",999877,9.35,47.64,1.731,0.31,21.55,109.3442,23.21,24.24,42.02,0,111,13.15,24.04,9.6
"2009-06-23 01:48:00",999878,9.47,50.39,1.299,0.243,21.61,109.3392,23.2,24.23,41.72,0,111,13.16,24.03,12.4
"2009-06-23 01:48:30",999879,9.55,49.98,1.309,0.129,21.62,109.3392,23.2,24.19,41.73,0,111,13.16,24.03,12.0
"2009-06-23 01:49:00",999880,9.71,51.16,0.983,0.258,21.59,109.3392,23.2,24.18,41.88,0,111,13.16,24.03,13.2
"2009-06-23 01:49:30",999881,10.07,49.12,1.253,0.244,21.49,109.3352,23.19,24.17,42.2,0,111,13.16,24.02,11.1